24-09-2022, 00:00:03,    347,    0.0,    8.6,   0.00,   0.00, 1012.7,   79.6, -999.0
24-09-2022, 00:00:13,    347,    0.0,    8.6,   0.00,   0.00, 1012.7,   79.5, -999.0
24-09-2022, 00:00:23,    347,    0.0,    8.5,   0.00,   0.00, 1012.7,   79.6, -999.0
24-09-2022, 00:00:33,    347,    0.0,    8.5,   0.00,   0.00, 1012.7,   79.6, -999.0
24-09-2022, 00:00:43,    346,    0.0,    8.7,   0.00,   0.00, 1012.7,   79.6, -999.0
24-09-2022, 00:00:53,    346,    0.0,    8.6,   0.00,   0.00, 1012.7,   79.5, -999.0
24-09-2022, 00:01:05,    346,    0.0,    8.5,   0.00,   0.00, 1012.7,   79.6, -999.0
24-09-2022, 00:01:13,    347,    0.0,    8.6,   0.00,   0.00, 1012.8,   79.6, -999.0
24-09-2022, 00:01:23,    347,    0.0,    8.6,   0.00,   0.00, 1012.7,   79.7, -999.0
24-09-2022, 00:01:32,    346,    0.0,    8.6,   0.00,   0.00, 1012.7,   79.7, -999.0
24-09-2022, 00:01:42,    347,    0.0,    8.7,   0.00,   0.00, 1012.7,   79.7, -999.0
24-09-2022, 00:01:53,    346,    0.0,    8.6,   0.00,   0.00, 1012.7,   79.7, -999.0
24-09-2022, 00:02:02,    347,    0.0,    8.7,   0.00,   0.00, 1012.7,   79.7, -999.0
24-09-2022, 00:02:12,    346,    0.0,    8.6,   0.00,   0.00, 1012.7,   79.6, -999.0
24-09-2022, 00:02:22,    347,    0.0,    8.6,   0.00,   0.00, 1012.7,   79.7, -999.0
24-09-2022, 00:02:32,    347,    0.0,    8.6,   0.00,   0.00, 1012.7,   79.5, -999.0
24-09-2022, 00:02:42,    347,    0.0,    8.6,   0.00,   0.00, 1012.7,   79.5, -999.0
24-09-2022, 00:02:52,    346,    0.0,    8.6,   0.00,   0.00, 1012.7,   79.5, -999.0
24-09-2022, 00:03:02,    347,    0.0,    8.6,   0.00,   0.00, 1012.7,   79.6, -999.0
24-09-2022, 00:03:12,    347,    0.0,    8.6,   0.00,   0.00, 1012.7,   79.8, -999.0
24-09-2022, 00:03:22,    347,    0.0,    8.6,   0.00,   0.00, 1012.7,   79.8, -999.0
24-09-2022, 00:03:32,    347,    0.0,    8.6,   0.00,   0.00, 1012.7,   79.8, -999.0
24-09-2022, 00:03:42,    347,    0.0,    8.6,   0.00,   0.00, 1012.7,   79.9, -999.0
24-09-2022, 00:03:52,    346,    0.0,    8.6,   0.00,   0.00, 1012.8,   79.9, -999.0
24-09-2022, 00:04:02,    347,    0.0,    8.6,   0.00,   0.00, 1012.7,   79.8, -999.0
24-09-2022, 00:04:11,    347,    0.0,    8.6,   0.00,   0.00, 1012.7,   79.8, -999.0
24-09-2022, 00:04:22,    346,    0.0,    8.6,   0.00,   0.00, 1012.8,   79.7, -999.0
24-09-2022, 00:04:32,    347,    0.0,    8.6,   0.00,   0.00, 1012.7,   79.6, -999.0
24-09-2022, 00:04:41,    347,    0.0,    8.6,   0.00,   0.00, 1012.7,   79.6, -999.0
24-09-2022, 00:04:51,    346,    0.0,    8.6,   0.00,   0.00, 1012.7,   79.5, -999.0
24-09-2022, 00:05:01,    346,    0.0,    8.6,   0.00,   0.00, 1012.7,   79.5, -999.0
24-09-2022, 00:05:11,    347,    0.0,    8.5,   0.00,   0.00, 1012.7,   79.7, -999.0
24-09-2022, 00:05:21,    347,    0.0,    8.5,   0.00,   0.00, 1012.7,   79.8, -999.0
24-09-2022, 00:05:31,    346,    0.0,    8.5,   0.00,   0.00, 1012.7,   79.9, -999.0
24-09-2022, 00:05:41,    347,    0.0,    8.5,   0.00,   0.00, 1012.7,   80.0, -999.0
24-09-2022, 00:05:51,    347,    0.0,    8.6,   0.00,   0.00, 1012.7,   80.0, -999.0
24-09-2022, 00:06:01,    346,    0.0,    8.5,   0.00,   0.00, 1012.7,   79.9, -999.0
24-09-2022, 00:06:11,    347,    0.0,    8.4,   0.00,   0.00, 1012.7,   79.9, -999.0
24-09-2022, 00:06:21,    347,    0.0,    8.5,   0.00,   0.00, 1012.8,   79.9, -999.0
24-09-2022, 00:06:31,    346,    0.0,    8.5,   0.00,   0.00, 1012.8,   80.0, -999.0
24-09-2022, 00:06:41,    348,    0.0,    8.5,   0.00,   0.00, 1012.8,   80.0, -999.0
24-09-2022, 00:06:51,    346,    0.0,    8.5,   0.00,   0.00, 1012.8,   80.1, -999.0
24-09-2022, 00:07:01,    347,    0.0,    8.5,   0.00,   0.00, 1012.8,   80.1, -999.0
24-09-2022, 00:07:11,    347,    0.0,    8.5,   0.00,   0.00, 1012.8,   80.2, -999.0
24-09-2022, 00:07:20,    347,    0.0,    8.4,   0.00,   0.00, 1012.8,   80.2, -999.0
24-09-2022, 00:07:31,    346,    0.0,    8.5,   0.00,   0.00, 1012.8,   80.3, -999.0
24-09-2022, 00:07:40,    347,    0.0,    8.5,   0.00,   0.00, 1012.8,   80.3, -999.0
24-09-2022, 00:07:50,    347,    0.0,    8.5,   0.00,   0.00, 1012.8,   80.3, -999.0
24-09-2022, 00:08:01,    347,    0.0,    8.5,   0.00,   0.00, 1012.7,   80.4, -999.0
24-09-2022, 00:08:10,    347,    0.0,    8.5,   0.00,   0.00, 1012.7,   80.3, -999.0
24-09-2022, 00:08:20,    346,    0.0,    8.5,   0.00,   0.00, 1012.7,   80.2, -999.0
24-09-2022, 00:08:30,    346,    0.0,    8.5,   0.00,   0.00, 1012.7,   80.2, -999.0
24-09-2022, 00:08:40,    346,    0.0,    8.5,   0.00,   0.00, 1012.7,   80.3, -999.0
24-09-2022, 00:08:50,    347,    0.0,    8.4,   0.00,   0.00, 1012.7,   80.2, -999.0
24-09-2022, 00:09:00,    346,    0.0,    8.5,   0.00,   0.00, 1012.7,   80.1, -999.0
24-09-2022, 00:09:10,    346,    0.0,    8.5,   0.00,   0.00, 1012.7,   80.1, -999.0
24-09-2022, 00:09:20,    347,    0.0,    8.5,   0.00,   0.00, 1012.7,   80.0, -999.0
24-09-2022, 00:09:30,    346,    0.0,    8.5,   0.00,   0.00, 1012.7,   80.0, -999.0
24-09-2022, 00:09:40,    347,    0.0,    8.5,   0.00,   0.00, 1012.7,   80.2, -999.0
24-09-2022, 00:09:50,    346,    0.0,    8.5,   0.00,   0.00, 1012.7,   80.4, -999.0
24-09-2022, 00:10:00,    347,    0.0,    8.5,   0.00,   0.00, 1012.7,   80.4, -999.0
24-09-2022, 00:10:10,    347,    0.0,    8.5,   0.00,   0.00, 1012.7,   80.4, -999.0
24-09-2022, 00:10:19,    347,    0.0,    8.5,   0.00,   0.00, 1012.7,   80.4, -999.0
24-09-2022, 00:10:30,    346,    0.0,    8.5,   0.00,   0.00, 1012.7,   80.4, -999.0
24-09-2022, 00:10:40,    347,    0.0,    8.5,   0.00,   0.00, 1012.7,   80.5, -999.0
24-09-2022, 00:10:49,    346,    0.0,    8.5,   0.00,   0.00, 1012.7,   80.6, -999.0
24-09-2022, 00:10:59,    346,    0.0,    8.5,   0.00,   0.00, 1012.7,   80.8, -999.0
24-09-2022, 00:11:10,    346,    0.0,    8.5,   0.00,   0.00, 1012.7,   80.7, -999.0
24-09-2022, 00:11:19,    346,    0.0,    8.5,   0.00,   0.00, 1012.7,   80.6, -999.0
24-09-2022, 00:11:29,    347,    0.0,    8.5,   0.00,   0.00, 1012.7,   80.5, -999.0
24-09-2022, 00:11:39,    347,    0.0,    8.5,   0.00,   0.00, 1012.7,   80.5, -999.0
24-09-2022, 00:11:49,    347,    0.0,    8.5,   0.00,   0.00, 1012.7,   80.5, -999.0
24-09-2022, 00:11:59,    347,    0.0,    8.5,   0.00,   0.00, 1012.7,   80.5, -999.0
24-09-2022, 00:12:09,    347,    0.0,    8.5,   0.00,   0.00, 1012.7,   80.5, -999.0
24-09-2022, 00:12:19,    346,    0.0,    8.5,   0.00,   0.00, 1012.7,   80.4, -999.0
24-09-2022, 00:12:29,    347,    0.0,    8.4,   0.00,   0.00, 1012.7,   80.5, -999.0
24-09-2022, 00:12:39,    346,    0.0,    8.5,   0.00,   0.00, 1012.7,   80.6, -999.0
24-09-2022, 00:12:49,    347,    0.0,    8.5,   0.00,   0.00, 1012.7,   80.8, -999.0
24-09-2022, 00:12:59,    346,    0.0,    8.5,   0.00,   0.00, 1012.7,   80.8, -999.0
24-09-2022, 00:13:09,    346,    0.0,    8.5,   0.00,   0.00, 1012.7,   80.8, -999.0
24-09-2022, 00:13:19,    347,    0.0,    8.5,   0.00,   0.00, 1012.7,   80.8, -999.0
24-09-2022, 00:13:28,    346,    0.0,    8.6,   0.00,   0.00, 1012.7,   80.8, -999.0
24-09-2022, 00:13:39,    347,    0.0,    8.5,   0.00,   0.00, 1012.6,   80.9, -999.0
24-09-2022, 00:13:49,    346,    0.0,    8.5,   0.00,   0.00, 1012.7,   80.8, -999.0
24-09-2022, 00:13:58,    346,    0.0,    8.5,   0.00,   0.00, 1012.7,   80.7, -999.0
24-09-2022, 00:14:08,    347,    0.0,    8.5,   0.00,   0.00, 1012.7,   80.8, -999.0
24-09-2022, 00:14:18,    347,    0.0,    8.5,   0.00,   0.00, 1012.7,   80.7, -999.0
24-09-2022, 00:14:28,    347,    0.0,    8.5,   0.00,   0.00, 1012.7,   80.8, -999.0
24-09-2022, 00:14:38,    347,    0.0,    8.5,   0.00,   0.00, 1012.7,   80.8, -999.0
24-09-2022, 00:14:48,    346,    0.0,    8.5,   0.00,   0.00, 1012.7,   80.9, -999.0
24-09-2022, 00:14:58,    347,    0.0,    8.5,   0.00,   0.00, 1012.7,   80.8, -999.0
24-09-2022, 00:15:08,    347,    0.0,    8.5,   0.00,   0.00, 1012.7,   80.9, -999.0
24-09-2022, 00:15:18,    347,    0.0,    8.4,   0.00,   0.00, 1012.7,   80.8, -999.0
24-09-2022, 00:15:28,    347,    0.0,    8.5,   0.00,   0.00, 1012.7,   80.9, -999.0
24-09-2022, 00:15:38,    347,    0.0,    8.5,   0.00,   0.00, 1012.7,   80.8, -999.0
24-09-2022, 00:15:48,    346,    0.0,    8.5,   0.00,   0.00, 1012.7,   80.9, -999.0
24-09-2022, 00:15:58,    347,    0.0,    8.6,   0.00,   0.00, 1012.7,   80.9, -999.0
24-09-2022, 00:16:08,    347,    0.0,    8.5,   0.00,   0.00, 1012.7,   80.9, -999.0
24-09-2022, 00:16:18,    347,    0.0,    8.5,   0.00,   0.00, 1012.6,   80.9, -999.0
24-09-2022, 00:16:28,    346,    0.0,    8.5,   0.00,   0.00, 1012.7,   80.9, -999.0
24-09-2022, 00:16:37,    346,    0.0,    8.5,   0.00,   0.00, 1012.7,   81.0, -999.0
24-09-2022, 00:16:48,    347,    0.0,    8.5,   0.00,   0.00, 1012.7,   80.9, -999.0
24-09-2022, 00:16:57,    347,    0.0,    8.5,   0.00,   0.00, 1012.7,   80.9, -999.0
24-09-2022, 00:17:07,    347,    0.0,    8.5,   0.00,   0.00, 1012.7,   80.9, -999.0
24-09-2022, 00:17:18,    347,    0.0,    8.5,   0.00,   0.00, 1012.7,   80.9, -999.0
24-09-2022, 00:17:27,    346,    0.0,    8.6,   0.00,   0.00, 1012.7,   80.9, -999.0
24-09-2022, 00:17:37,    347,    0.0,    8.5,   0.00,   0.00, 1012.7,   80.9, -999.0
24-09-2022, 00:17:47,    346,    0.0,    8.5,   0.00,   0.00, 1012.7,   80.9, -999.0
24-09-2022, 00:17:57,    346,    0.0,    8.6,   0.00,   0.00, 1012.7,   80.9, -999.0
24-09-2022, 00:18:07,    347,    0.0,    8.5,   0.00,   0.00, 1012.7,   80.9, -999.0
24-09-2022, 00:18:17,    347,    0.0,    8.5,   0.00,   0.00, 1012.7,   80.8, -999.0
24-09-2022, 00:18:27,    347,    0.0,    8.4,   0.00,   0.00, 1012.7,   80.9, -999.0
24-09-2022, 00:18:37,    346,    0.0,    8.5,   0.00,   0.00, 1012.7,   80.8, -999.0
24-09-2022, 00:18:47,    347,    0.0,    8.5,   0.00,   0.00, 1012.7,   80.8, -999.0
24-09-2022, 00:18:57,    347,    0.0,    8.4,   0.00,   0.00, 1012.7,   80.7, -999.0
24-09-2022, 00:19:07,    346,    0.0,    8.5,   0.00,   0.00, 1012.7,   80.7, -999.0
24-09-2022, 00:19:17,    346,    0.0,    8.4,   0.00,   0.00, 1012.6,   81.0, -999.0
24-09-2022, 00:19:27,    347,    0.0,    8.4,   0.00,   0.00, 1012.6,   80.9, -999.0
24-09-2022, 00:19:37,    347,    0.0,    8.5,   0.00,   0.00, 1012.6,   81.0, -999.0
24-09-2022, 00:19:46,    347,    0.0,    8.4,   0.00,   0.00, 1012.7,   80.9, -999.0
24-09-2022, 00:19:57,    347,    0.0,    8.4,   0.00,   0.00, 1012.7,   81.1, -999.0
24-09-2022, 00:20:06,    347,    0.0,    8.4,   0.00,   0.00, 1012.7,   81.1, -999.0
24-09-2022, 00:20:16,    347,    0.0,    8.4,   0.00,   0.00, 1012.7,   81.2, -999.0
24-09-2022, 00:20:27,    346,    0.0,    8.4,   0.00,   0.00, 1012.7,   81.2, -999.0
24-09-2022, 00:20:36,    347,    0.0,    8.4,   0.00,   0.00, 1012.7,   81.1, -999.0
24-09-2022, 00:20:46,    347,    0.0,    8.4,   0.00,   0.00, 1012.7,   81.1, -999.0
24-09-2022, 00:20:56,    347,    0.0,    8.4,   0.00,   0.00, 1012.7,   81.0, -999.0
24-09-2022, 00:21:06,    347,    0.0,    8.4,   0.00,   0.00, 1012.6,   81.0, -999.0
24-09-2022, 00:21:16,    346,    0.0,    8.4,   0.00,   0.00, 1012.7,   81.1, -999.0
24-09-2022, 00:21:26,    347,    0.0,    8.4,   0.00,   0.00, 1012.6,   81.0, -999.0
24-09-2022, 00:21:36,    347,    0.0,    8.4,   0.00,   0.00, 1012.6,   81.0, -999.0
24-09-2022, 00:21:46,    346,    0.0,    8.4,   0.00,   0.00, 1012.6,   80.9, -999.0
24-09-2022, 00:21:56,    346,    0.0,    8.4,   0.00,   0.00, 1012.6,   80.9, -999.0
24-09-2022, 00:22:06,    347,    0.0,    8.4,   0.00,   0.00, 1012.7,   81.0, -999.0
24-09-2022, 00:22:15,    347,    0.0,    8.4,   0.00,   0.00, 1012.6,   81.0, -999.0
24-09-2022, 00:22:26,    346,    0.0,    8.4,   0.00,   0.00, 1012.7,   81.0, -999.0
24-09-2022, 00:22:36,    347,    0.0,    8.4,   0.00,   0.00, 1012.6,   80.9, -999.0
24-09-2022, 00:22:45,    347,    0.0,    8.4,   0.00,   0.00, 1012.6,   81.0, -999.0
24-09-2022, 00:22:56,    346,    0.0,    8.4,   0.00,   0.00, 1012.6,   80.9, -999.0
24-09-2022, 00:23:06,    346,    0.0,    8.4,   0.00,   0.00, 1012.6,   81.1, -999.0
24-09-2022, 00:23:15,    347,    0.0,    8.3,   0.00,   0.00, 1012.6,   81.1, -999.0
24-09-2022, 00:23:25,    347,    0.0,    8.3,   0.00,   0.00, 1012.6,   81.0, -999.0
24-09-2022, 00:23:35,    346,    0.0,    8.4,   0.00,   0.00, 1012.6,   81.0, -999.0
24-09-2022, 00:23:45,    346,    0.0,    8.3,   0.00,   0.00, 1012.6,   81.0, -999.0
24-09-2022, 00:23:55,    347,    0.0,    8.4,   0.00,   0.00, 1012.6,   81.0, -999.0
24-09-2022, 00:24:05,    347,    0.0,    8.3,   0.00,   0.00, 1012.6,   81.0, -999.0
24-09-2022, 00:24:15,    347,    0.0,    8.3,   0.00,   0.00, 1012.6,   81.0, -999.0
24-09-2022, 00:24:25,    347,    0.0,    8.4,   0.00,   0.00, 1012.7,   81.1, -999.0
24-09-2022, 00:24:35,    347,    0.0,    8.4,   0.00,   0.00, 1012.7,   81.3, -999.0
24-09-2022, 00:24:45,    347,    0.0,    8.4,   0.00,   0.00, 1012.6,   81.4, -999.0
24-09-2022, 00:24:55,    346,    0.0,    8.4,   0.00,   0.00, 1012.6,   81.5, -999.0
24-09-2022, 00:25:05,    347,    0.0,    8.4,   0.00,   0.00, 1012.7,   81.6, -999.0
24-09-2022, 00:25:15,    347,    0.0,    8.4,   0.00,   0.00, 1012.7,   81.5, -999.0
24-09-2022, 00:25:25,    346,    0.0,    8.4,   0.00,   0.00, 1012.6,   81.4, -999.0
24-09-2022, 00:25:35,    347,    0.0,    8.4,   0.00,   0.00, 1012.6,   81.5, -999.0
24-09-2022, 00:25:45,    347,    0.0,    8.4,   0.00,   0.00, 1012.6,   81.4, -999.0
24-09-2022, 00:25:54,    347,    0.0,    8.4,   0.00,   0.00, 1012.6,   81.5, -999.0
24-09-2022, 00:26:05,    347,    0.0,    8.4,   0.00,   0.00, 1012.6,   81.5, -999.0
24-09-2022, 00:26:14,    347,    0.0,    8.4,   0.00,   0.00, 1012.6,   81.5, -999.0
24-09-2022, 00:26:24,    347,    0.0,    8.4,   0.00,   0.00, 1012.6,   81.6, -999.0
24-09-2022, 00:26:35,    347,    0.0,    8.3,   0.00,   0.00, 1012.6,   81.5, -999.0
24-09-2022, 00:26:44,    347,    0.0,    8.4,   0.00,   0.00, 1012.6,   81.6, -999.0
24-09-2022, 00:26:54,    347,    0.0,    8.4,   0.00,   0.00, 1012.7,   81.4, -999.0
24-09-2022, 00:27:04,    346,    0.0,    8.4,   0.00,   0.00, 1012.7,   81.4, -999.0
24-09-2022, 00:27:14,    347,    0.0,    8.4,   0.00,   0.00, 1012.7,   81.5, -999.0
24-09-2022, 00:27:24,    346,    0.0,    8.4,   0.00,   0.00, 1012.6,   81.5, -999.0
24-09-2022, 00:27:34,    347,    0.0,    8.3,   0.00,   0.00, 1012.6,   81.5, -999.0
24-09-2022, 00:27:44,    347,    0.0,    8.3,   0.00,   0.00, 1012.6,   81.5, -999.0
24-09-2022, 00:27:54,    347,    0.0,    8.3,   0.00,   0.00, 1012.6,   81.5, -999.0
24-09-2022, 00:28:04,    346,    0.0,    8.4,   0.00,   0.00, 1012.6,   81.5, -999.0
24-09-2022, 00:28:14,    347,    0.0,    8.4,   0.00,   0.00, 1012.6,   81.7, -999.0
24-09-2022, 00:28:24,    347,    0.0,    8.4,   0.00,   0.00, 1012.6,   81.7, -999.0
24-09-2022, 00:28:34,    347,    0.0,    8.3,   0.00,   0.00, 1012.6,   81.6, -999.0
24-09-2022, 00:28:44,    347,    0.0,    8.4,   0.00,   0.00, 1012.6,   81.7, -999.0
24-09-2022, 00:28:53,    347,    0.0,    8.3,   0.00,   0.00, 1012.6,   81.8, -999.0
24-09-2022, 00:29:04,    347,    0.0,    8.4,   0.00,   0.00, 1012.6,   81.7, -999.0
24-09-2022, 00:29:14,    347,    0.0,    8.4,   0.00,   0.00, 1012.6,   81.8, -999.0
24-09-2022, 00:29:23,    347,    0.0,    8.4,   0.00,   0.00, 1012.6,   81.8, -999.0
24-09-2022, 00:29:33,    347,    0.0,    8.3,   0.00,   0.00, 1012.6,   81.7, -999.0
24-09-2022, 00:29:44,    346,    0.0,    8.3,   0.00,   0.00, 1012.6,   81.8, -999.0
24-09-2022, 00:29:53,    347,    0.0,    8.3,   0.00,   0.00, 1012.6,   81.8, -999.0
24-09-2022, 00:30:03,    347,    0.0,    8.3,   0.00,   0.00, 1012.6,   81.8, -999.0
24-09-2022, 00:30:13,    347,    0.0,    8.3,   0.00,   0.00, 1012.6,   81.8, -999.0
24-09-2022, 00:30:23,    346,    0.0,    8.3,   0.00,   0.00, 1012.6,   81.8, -999.0
24-09-2022, 00:30:33,    346,    0.0,    8.3,   0.00,   0.00, 1012.6,   81.9, -999.0
24-09-2022, 00:30:43,    346,    0.0,    8.3,   0.00,   0.00, 1012.6,   81.9, -999.0
24-09-2022, 00:30:53,    346,    0.0,    8.3,   0.00,   0.00, 1012.6,   81.9, -999.0
24-09-2022, 00:31:03,    347,    0.0,    8.3,   0.00,   0.00, 1012.6,   81.9, -999.0
24-09-2022, 00:31:13,    347,    0.0,    8.3,   0.00,   0.00, 1012.6,   81.9, -999.0
24-09-2022, 00:31:23,    347,    0.0,    8.3,   0.00,   0.00, 1012.6,   81.9, -999.0
24-09-2022, 00:31:33,    346,    0.0,    8.3,   0.00,   0.00, 1012.6,   81.9, -999.0
24-09-2022, 00:31:43,    347,    0.0,    8.3,   0.00,   0.00, 1012.6,   81.8, -999.0
24-09-2022, 00:31:53,    347,    0.0,    8.2,   0.00,   0.00, 1012.6,   81.9, -999.0
24-09-2022, 00:32:02,    346,    0.0,    8.3,   0.00,   0.00, 1012.6,   81.9, -999.0
24-09-2022, 00:32:13,    346,    0.0,    8.2,   0.00,   0.00, 1012.6,   81.9, -999.0
24-09-2022, 00:32:23,    347,    0.0,    8.2,   0.00,   0.00, 1012.6,   81.9, -999.0
24-09-2022, 00:32:32,    347,    0.0,    8.2,   0.00,   0.00, 1012.6,   82.0, -999.0
24-09-2022, 00:32:42,    347,    0.0,    8.2,   0.00,   0.00, 1012.6,   82.1, -999.0
24-09-2022, 00:32:52,    347,    0.0,    8.3,   0.00,   0.00, 1012.6,   82.2, -999.0
24-09-2022, 00:33:02,    346,    0.0,    8.3,   0.00,   0.00, 1012.6,   82.2, -999.0
24-09-2022, 00:33:12,    347,    0.0,    8.3,   0.00,   0.00, 1012.6,   82.1, -999.0
24-09-2022, 00:33:22,    347,    0.0,    8.2,   0.00,   0.00, 1012.6,   82.1, -999.0
24-09-2022, 00:33:32,    346,    0.0,    8.2,   0.00,   0.00, 1012.6,   82.2, -999.0
24-09-2022, 00:33:42,    346,    0.0,    8.2,   0.00,   0.00, 1012.6,   82.2, -999.0
24-09-2022, 00:33:52,    347,    0.0,    8.2,   0.00,   0.00, 1012.6,   82.2, -999.0
24-09-2022, 00:34:02,    346,    0.0,    8.2,   0.00,   0.00, 1012.6,   82.2, -999.0
24-09-2022, 00:34:12,    347,    0.0,    8.2,   0.00,   0.00, 1012.6,   82.3, -999.0
24-09-2022, 00:34:22,    347,    0.0,    8.2,   0.00,   0.00, 1012.6,   82.2, -999.0
24-09-2022, 00:34:32,    347,    0.0,    8.1,   0.00,   0.00, 1012.6,   82.3, -999.0
24-09-2022, 00:34:42,    346,    0.0,    8.1,   0.00,   0.00, 1012.6,   82.3, -999.0
24-09-2022, 00:34:52,    347,    0.0,    8.2,   0.00,   0.00, 1012.6,   82.3, -999.0
24-09-2022, 00:35:02,    347,    0.0,    8.1,   0.00,   0.00, 1012.7,   82.3, -999.0
24-09-2022, 00:35:11,    347,    0.0,    8.1,   0.00,   0.00, 1012.6,   82.4, -999.0
24-09-2022, 00:35:22,    346,    0.0,    8.2,   0.00,   0.00, 1012.7,   82.4, -999.0
24-09-2022, 00:35:32,    347,    0.0,    8.2,   0.00,   0.00, 1012.7,   82.4, -999.0
24-09-2022, 00:35:41,    347,    0.0,    8.2,   0.00,   0.00, 1012.7,   82.5, -999.0
24-09-2022, 00:35:51,    347,    0.0,    8.1,   0.00,   0.00, 1012.7,   82.5, -999.0
24-09-2022, 00:36:01,    347,    0.0,    8.1,   0.00,   0.00, 1012.7,   82.5, -999.0
24-09-2022, 00:36:11,    347,    0.0,    8.1,   0.00,   0.00, 1012.7,   82.5, -999.0
24-09-2022, 00:36:21,    347,    0.0,    8.2,   0.00,   0.00, 1012.7,   82.5, -999.0
24-09-2022, 00:36:31,    346,    0.0,    8.1,   0.00,   0.00, 1012.7,   82.6, -999.0
24-09-2022, 00:36:41,    346,    0.0,    8.1,   0.00,   0.00, 1012.7,   82.6, -999.0
24-09-2022, 00:36:51,    347,    0.0,    8.1,   0.00,   0.00, 1012.7,   82.6, -999.0
24-09-2022, 00:37:01,    347,    0.0,    8.0,   0.00,   0.00, 1012.7,   82.6, -999.0
24-09-2022, 00:37:11,    347,    0.0,    8.1,   0.00,   0.00, 1012.7,   82.6, -999.0
24-09-2022, 00:37:21,    347,    0.0,    8.1,   0.00,   0.00, 1012.7,   82.7, -999.0
24-09-2022, 00:37:31,    346,    0.0,    8.1,   0.00,   0.00, 1012.7,   82.8, -999.0
24-09-2022, 00:37:41,    347,    0.0,    8.1,   0.00,   0.00, 1012.6,   82.8, -999.0
24-09-2022, 00:37:51,    347,    0.0,    8.0,   0.00,   0.00, 1012.7,   82.9, -999.0
24-09-2022, 00:38:01,    347,    0.0,    8.1,   0.00,   0.00, 1012.7,   82.9, -999.0
24-09-2022, 00:38:11,    346,    0.0,    8.0,   0.00,   0.00, 1012.7,   82.9, -999.0
24-09-2022, 00:38:20,    346,    0.0,    8.0,   0.00,   0.00, 1012.7,   83.0, -999.0
24-09-2022, 00:38:31,    347,    0.0,    8.0,   0.00,   0.00, 1012.6,   83.1, -999.0
24-09-2022, 00:38:40,    347,    0.0,    8.1,   0.00,   0.00, 1012.6,   83.1, -999.0
24-09-2022, 00:38:50,    348,    0.0,    8.0,   0.00,   0.00, 1012.6,   83.1, -999.0
24-09-2022, 00:39:00,    347,    0.0,    8.1,   0.00,   0.00, 1012.6,   83.1, -999.0
24-09-2022, 00:39:10,    346,    0.0,    8.0,   0.00,   0.00, 1012.6,   83.1, -999.0
24-09-2022, 00:39:20,    347,    0.0,    8.0,   0.00,   0.00, 1012.6,   83.2, -999.0
24-09-2022, 00:39:30,    347,    0.0,    8.0,   0.00,   0.00, 1012.6,   83.0, -999.0
24-09-2022, 00:39:40,    347,    0.0,    8.0,   0.00,   0.00, 1012.6,   83.2, -999.0
24-09-2022, 00:39:50,    347,    0.0,    8.1,   0.00,   0.00, 1012.6,   83.1, -999.0
24-09-2022, 00:40:00,    348,    0.0,    8.0,   0.00,   0.00, 1012.6,   83.0, -999.0
24-09-2022, 00:40:10,    346,    0.0,    8.1,   0.00,   0.00, 1012.6,   83.1, -999.0
24-09-2022, 00:40:20,    346,    0.0,    8.0,   0.00,   0.00, 1012.7,   83.1, -999.0
24-09-2022, 00:40:30,    347,    0.0,    8.1,   0.00,   0.00, 1012.6,   83.1, -999.0
24-09-2022, 00:40:40,    346,    0.0,    8.1,   0.00,   0.00, 1012.6,   83.1, -999.0
24-09-2022, 00:40:50,    347,    0.0,    8.1,   0.00,   0.00, 1012.6,   83.1, -999.0
24-09-2022, 00:41:00,    347,    0.0,    8.1,   0.00,   0.00, 1012.6,   83.0, -999.0
24-09-2022, 00:41:10,    347,    0.0,    8.1,   0.00,   0.00, 1012.6,   83.1, -999.0
24-09-2022, 00:41:20,    346,    0.0,    8.1,   0.00,   0.00, 1012.6,   83.1, -999.0
24-09-2022, 00:41:29,    347,    0.0,    8.1,   0.00,   0.00, 1012.6,   83.1, -999.0
24-09-2022, 00:41:40,    347,    0.0,    8.0,   0.00,   0.00, 1012.6,   83.1, -999.0
24-09-2022, 00:41:49,    347,    0.0,    7.9,   0.00,   0.00, 1012.6,   83.2, -999.0
24-09-2022, 00:41:59,    346,    0.0,    8.1,   0.00,   0.00, 1012.6,   83.3, -999.0
24-09-2022, 00:42:09,    347,    0.0,    8.1,   0.00,   0.00, 1012.6,   83.3, -999.0
24-09-2022, 00:42:19,    346,    0.0,    8.1,   0.00,   0.00, 1012.6,   83.3, -999.0
24-09-2022, 00:42:29,    347,    0.0,    8.0,   0.00,   0.00, 1012.6,   83.3, -999.0
24-09-2022, 00:42:39,    347,    0.0,    8.1,   0.00,   0.00, 1012.6,   83.2, -999.0
24-09-2022, 00:42:49,    347,    0.0,    8.0,   0.00,   0.00, 1012.7,   83.2, -999.0
24-09-2022, 00:42:59,    347,    0.0,    8.0,   0.00,   0.00, 1012.6,   83.4, -999.0
24-09-2022, 00:43:09,    346,    0.0,    8.0,   0.00,   0.00, 1012.6,   83.4, -999.0
24-09-2022, 00:43:19,    347,    0.0,    8.0,   0.00,   0.00, 1012.7,   83.4, -999.0
24-09-2022, 00:43:29,    347,    0.0,    8.0,   0.00,   0.00, 1012.7,   83.4, -999.0
24-09-2022, 00:43:39,    347,    0.0,    8.0,   0.00,   0.00, 1012.6,   83.4, -999.0
24-09-2022, 00:43:49,    346,    0.0,    8.0,   0.00,   0.00, 1012.7,   83.5, -999.0
24-09-2022, 00:43:58,    346,    0.0,    8.0,   0.00,   0.00, 1012.6,   83.5, -999.0
24-09-2022, 00:44:09,    347,    0.0,    8.0,   0.00,   0.00, 1012.6,   83.5, -999.0
24-09-2022, 00:44:19,    346,    0.0,    8.0,   0.00,   0.00, 1012.7,   83.5, -999.0
24-09-2022, 00:44:28,    347,    0.0,    8.0,   0.00,   0.00, 1012.7,   83.6, -999.0
24-09-2022, 00:44:39,    347,    0.0,    8.0,   0.00,   0.00, 1012.6,   83.6, -999.0
24-09-2022, 00:44:49,    347,    0.0,    8.0,   0.00,   0.00, 1012.7,   83.6, -999.0
24-09-2022, 00:44:58,    346,    0.0,    8.0,   0.00,   0.00, 1012.7,   83.6, -999.0
24-09-2022, 00:45:08,    347,    0.0,    8.0,   0.00,   0.00, 1012.7,   83.6, -999.0
24-09-2022, 00:45:18,    347,    0.0,    7.9,   0.00,   0.00, 1012.7,   83.6, -999.0
24-09-2022, 00:45:28,    347,    0.0,    8.0,   0.00,   0.00, 1012.7,   83.6, -999.0
24-09-2022, 00:45:38,    347,    0.0,    7.9,   0.00,   0.00, 1012.7,   83.5, -999.0
24-09-2022, 00:45:48,    347,    0.0,    7.9,   0.00,   0.00, 1012.7,   83.5, -999.0
24-09-2022, 00:45:58,    347,    0.0,    8.0,   0.00,   0.00, 1012.7,   83.5, -999.0
24-09-2022, 00:46:08,    346,    0.0,    8.0,   0.00,   0.00, 1012.7,   83.5, -999.0
24-09-2022, 00:46:18,    347,    0.0,    7.9,   0.00,   0.00, 1012.7,   83.6, -999.0
24-09-2022, 00:46:28,    347,    0.0,    7.9,   0.00,   0.00, 1012.6,   83.6, -999.0
24-09-2022, 00:46:38,    347,    0.0,    7.9,   0.00,   0.00, 1012.6,   83.6, -999.0